Weather History for Savanna, IL

Change the Weather History Date:

Wednesday, April 3, 2013

  Actual Average (KCWI) Record (KCWI)
Temperature  
Mean Temperature 33 °F -  
Max Temperature 48 °F 55 °F 83 °F (1981)
Min Temperature 19 °F 35 °F 16 °F (1975)
Degree Days  
Heating Degree Days 32    
Moisture  
Dew Point 17 °F    
Average Humidity 52    
Maximum Humidity 91    
Minimum Humidity 24    
Precipitation  
Precipitation 0.00 in - - ()
Sea Level Pressure  
Sea Level Pressure 30.37 in    
Wind  
Wind Speed 4 mph (East)    
Max Wind Speed 10 mph    
Max Gust Speed 9 mph    
Visibility 10 miles    
Events      
Averages and records for this station are not official NWS values.
T = Trace of Precipitation, MM = Missing Value Source: NWS Daily Summary

Daily Weather History Graph

Daily Weather History Graph

Search for Another Location

Airport:

Trip Planner

Search our weather history database for the weather conditions in past years. The results will help you decide how hot, cold, wet, or windy it might be!

Date:

Astronomy

Apr. 03, 2013 Rise Set
Actual Time 6:39 AM CDT 7:28 PM CDT
Civil Twilight 6:11 AM CDT 7:56 PM CDT
Nautical Twilight 5:37 AM CDT 8:30 PM CDT
Astronomical Twilight 5:02 AM CDT 9:05 PM CDT
Moon 2:26 AM CDT (4/3) 12:34 PM CDT (4/3)
Length of Visible Light 13h 45m
Length of Day
12h 49m
Last Quarter, 44% of the Moon is Illuminated
Apr 3
Last Quarter
Apr 10
New
Apr 18
First Quarter
Apr 25
Full
May 2
Last Quarter

Hourly Weather History & Observations

Time (CDT) Temp. Windchill Dew Point Humidity Pressure Visibility Wind Dir Wind Speed Gust Speed Precip Events Conditions
12:15 AM 29.8 °F 24.9 °F 16.5 °F 58% 30.34 in 10.0 mi NNW 4.6 mph - N/A   Clear
12:35 AM 29.7 °F 24.7 °F 16.7 °F 59% 30.34 in 10.0 mi NNW 4.6 mph - N/A   Clear
12:55 AM 29.1 °F - 16.5 °F 59% 30.34 in 10.0 mi Calm Calm - N/A   Clear
1:15 AM 30.0 °F - 16.2 °F 56% 30.34 in 10.0 mi Calm Calm - N/A   Clear
1:35 AM 28.2 °F - 17.4 °F 64% 30.34 in 10.0 mi Calm Calm - N/A   Clear
1:55 AM 29.1 °F 25.4 °F 17.1 °F 61% 30.35 in 10.0 mi North 3.5 mph - N/A   Clear
2:15 AM 29.3 °F 25.6 °F 16.2 °F 58% 30.35 in 10.0 mi NNW 3.5 mph - N/A   Clear
2:35 AM 28.4 °F 23.3 °F 16.5 °F 61% 30.35 in 10.0 mi North 4.6 mph - N/A   Clear
2:55 AM 27.5 °F - 17.6 °F 66% 30.35 in 10.0 mi Calm Calm - N/A   Clear
3:15 AM 28.4 °F - 16.7 °F 62% 30.36 in 10.0 mi Calm Calm - N/A   Clear
3:35 AM 28.2 °F 24.4 °F 16.7 °F 62% 30.36 in 10.0 mi NNW 3.5 mph - N/A   Clear
3:55 AM 26.2 °F 20.7 °F 15.8 °F 65% 30.36 in 10.0 mi North 4.6 mph - N/A   Clear
4:15 AM 24.3 °F - 16.5 °F 72% 30.38 in 10.0 mi Calm Calm - N/A   Clear
4:35 AM 23.9 °F 18.0 °F 18.1 °F 79% 30.38 in 10.0 mi North 4.6 mph - N/A   Clear
4:55 AM 22.5 °F 15.1 °F 18.5 °F 85% 30.39 in 10.0 mi North 5.8 mph - N/A   Clear
5:15 AM 23.9 °F - 18.7 °F 80% 30.39 in 10.0 mi Calm Calm - N/A   Clear
5:35 AM 23.9 °F - 18.5 °F 80% 30.40 in 10.0 mi Calm Calm - N/A   Clear
5:55 AM 22.8 °F - 18.3 °F 83% 30.42 in 10.0 mi Calm Calm - N/A   Clear
6:15 AM 19.9 °F 12.1 °F 15.4 °F 83% 30.41 in 10.0 mi NNE 5.8 mph - N/A   Clear
6:35 AM 20.7 °F 15.8 °F 18.1 °F 90% 30.41 in 10.0 mi NNE 3.5 mph - N/A   Clear
6:55 AM 23.5 °F - 21.4 °F 91% 30.41 in 10.0 mi Calm Calm - N/A   Clear
7:15 AM 25.2 °F 16.5 °F 19.4 °F 79% 30.43 in 10.0 mi NW 8.1 mph - N/A   Clear
7:35 AM 27.5 °F - 18.5 °F 69% 30.42 in 10.0 mi Calm Calm - N/A   Clear
7:55 AM 28.4 °F 24.6 °F 19.6 °F 70% 30.43 in 10.0 mi North 3.5 mph - N/A   Clear
8:15 AM 29.5 °F 25.9 °F 19.8 °F 67% 30.44 in 10.0 mi North 3.5 mph - N/A   Clear
8:35 AM 31.3 °F 26.6 °F 19.6 °F 62% 30.44 in 10.0 mi NE 4.6 mph - N/A   Clear
8:55 AM 32.2 °F 28.9 °F 18.5 °F 57% 30.45 in 10.0 mi NE 3.5 mph - N/A   Clear
9:15 AM 34.3 °F 31.4 °F 19.0 °F 54% 30.45 in 10.0 mi East 3.5 mph - N/A   Clear
9:35 AM 36.5 °F 31.8 °F 17.6 °F 46% 30.45 in 10.0 mi East 5.8 mph - N/A   Clear
9:55 AM 37.6 °F 32.3 °F 17.8 °F 45% 30.44 in 10.0 mi East 6.9 mph - N/A   Clear
10:15 AM 39.2 °F 33.6 °F 17.1 °F 41% 30.44 in 10.0 mi East 8.1 mph - N/A   Clear
10:35 AM 39.9 °F 33.9 °F 15.1 °F 36% 30.44 in 10.0 mi East 9.2 mph - N/A   Clear
10:55 AM 41.2 °F 36.6 °F 12.4 °F 31% 30.45 in 10.0 mi East 6.9 mph - N/A   Clear
11:15 AM 40.6 °F 36.0 °F 9.0 °F 27% 30.45 in 10.0 mi East 6.9 mph - N/A   Clear
11:35 AM 41.9 °F 40.0 °F 11.7 °F 29% 30.45 in 10.0 mi South 3.5 mph - N/A   Clear
11:55 AM 42.1 °F 37.1 °F 11.1 °F 28% 30.44 in 10.0 mi SE 8.1 mph - N/A   Clear
12:15 PM 43.0 °F 39.5 °F 10.9 °F 27% 30.44 in 10.0 mi East 5.8 mph - N/A   Clear
12:35 PM 43.0 °F 38.8 °F 11.3 °F 28% 30.43 in 10.0 mi SE 6.9 mph - N/A   Clear
12:55 PM 44.6 °F 39.2 °F 11.3 °F 26% 30.42 in 10.0 mi SE 10.4 mph - N/A   Clear
1:15 PM 44.8 °F 42.4 °F 11.3 °F 26% 30.41 in 10.0 mi South 4.6 mph - N/A   Clear
1:35 PM 44.4 °F 40.0 °F 12.4 °F 27% 30.41 in 10.0 mi SSE 8.1 mph - N/A   Clear
1:55 PM 45.5 °F 41.3 °F 13.3 °F 27% 30.40 in 10.0 mi SSW 8.1 mph - N/A   Clear
2:15 PM 45.5 °F 42.5 °F 14.7 °F 29% 30.39 in 10.0 mi WSW 5.8 mph - N/A   Clear
2:35 PM 46.8 °F - 14.0 °F 27% 30.37 in 10.0 mi SE 5.8 mph 9.2 mph N/A   Clear
2:55 PM 47.3 °F - 14.2 °F 27% 30.37 in 10.0 mi East 4.6 mph - N/A   Clear
3:15 PM 46.4 °F 42.9 °F 13.6 °F 27% 30.35 in 10.0 mi ENE 6.9 mph - N/A   Clear
3:35 PM 47.5 °F - 13.6 °F 26% 30.36 in 10.0 mi SE 4.6 mph - N/A   Clear
3:55 PM 47.5 °F - 12.9 °F 25% 30.36 in 10.0 mi SE 6.9 mph - N/A   Clear
4:15 PM 46.8 °F - 11.5 °F 24% 30.36 in 10.0 mi South 4.6 mph - N/A   Clear
4:35 PM 46.8 °F - 12.6 °F 25% 30.35 in 10.0 mi SSE 5.8 mph - N/A   Clear
4:55 PM 46.4 °F 42.4 °F 12.7 °F 26% 30.34 in 10.0 mi ESE 8.1 mph - N/A   Clear
5:15 PM 46.4 °F 45.2 °F 14.0 °F 27% 30.33 in 10.0 mi SE 3.5 mph - N/A   Clear
5:35 PM 46.4 °F 45.2 °F 13.1 °F 26% 30.33 in 10.0 mi East 3.5 mph - N/A   Clear
5:55 PM 45.9 °F 43.6 °F 14.4 °F 28% 30.33 in 10.0 mi SSE 4.6 mph - N/A   Clear
6:15 PM 45.7 °F 43.4 °F 15.4 °F 30% 30.33 in 10.0 mi SE 4.6 mph - N/A   Clear
6:35 PM 44.8 °F 42.4 °F 16.9 °F 33% 30.32 in 10.0 mi SE 4.6 mph - N/A   Clear
6:55 PM 42.6 °F 39.9 °F 19.4 °F 39% 30.32 in 10.0 mi SSE 4.6 mph - N/A   Clear
7:15 PM 41.0 °F 39.0 °F 21.7 °F 46% 30.32 in 10.0 mi SSE 3.5 mph - N/A   Clear
7:35 PM 40.5 °F 37.3 °F 21.9 °F 48% 30.32 in 10.0 mi SSE 4.6 mph - N/A   Clear
7:55 PM 39.2 °F 37.0 °F 21.9 °F 50% 30.31 in 10.0 mi ESE 3.5 mph - N/A   Clear
8:15 PM 37.4 °F 34.9 °F 23.4 °F 57% 30.31 in 10.0 mi East 3.5 mph - N/A   Clear
8:35 PM 36.3 °F 33.7 °F 23.0 °F 59% 30.31 in 10.0 mi East 3.5 mph - N/A   Clear
8:55 PM 35.2 °F - 22.1 °F 59% 30.31 in 10.0 mi Calm Calm - N/A   Clear
9:15 PM 35.6 °F 32.8 °F 21.9 °F 58% 30.31 in 10.0 mi NE 3.5 mph - N/A   Clear
9:35 PM 34.9 °F 32.0 °F 21.9 °F 59% 30.30 in 10.0 mi ENE 3.5 mph - N/A   Clear
9:55 PM 32.7 °F 29.6 °F 23.0 °F 67% 30.30 in 10.0 mi ENE 3.5 mph - N/A   Clear
10:15 PM 33.8 °F 30.8 °F 24.8 °F 70% 30.30 in 10.0 mi NE 3.5 mph - N/A   Clear
10:35 PM 33.8 °F - 25.0 °F 70% 30.30 in 10.0 mi Calm Calm - N/A   Clear
10:55 PM 32.9 °F - 24.1 °F 70% 30.30 in 10.0 mi Calm Calm - N/A   Clear
11:15 PM 32.0 °F - 25.5 °F 77% 30.29 in 10.0 mi Calm Calm - N/A   Clear
11:35 PM 30.9 °F - 24.6 °F 77% 30.29 in 10.0 mi Calm Calm - N/A   Clear
11:55 PM 30.2 °F - 23.9 °F 77% 30.28 in 10.0 mi Calm Calm - N/A   Clear